Location: Hilton Head Island
(32.2163°N, 80.7526°W)
Time: 02:57:52
(UTC-05:00)

Explorer 11/Cluster Stage 4 - All Passes

Search period start: 16 February 2026 00:00
Search period end: 26 February 2026 00:00
Orbit: 463 x 1177 km, 28.8° (Epoch: 15 February)

Date Brightness Start Highest point End Pass type
(mag) Time Alt. Az. Time Alt. Az. Time Alt. Az.
16 Feb - 12:12:20 10° S 12:13:47 11° SSE 12:15:09 10° SE daylight
16 Feb - 13:57:18 10° SW 14:00:44 30° SSE 14:03:57 10° ESE daylight
16 Feb - 15:44:12 10° WSW 15:47:42 49° S 15:51:16 10° ESE daylight
16 Feb - 17:31:21 10° WSW 17:34:42 35° SSW 17:38:24 10° SE daylight
16 Feb - 19:19:23 10° SW 19:21:44 15° SSW 19:24:18 10° SSE visible
17 Feb - 11:47:35 10° S 11:49:40 13° SSE 11:51:36 10° SE daylight
17 Feb - 13:33:02 10° SW 13:36:41 32° SSE 13:40:00 10° ESE daylight
17 Feb - 15:20:07 10° WSW 15:23:41 49° S 15:27:11 10° ESE daylight
17 Feb - 17:07:23 10° WSW 17:10:40 33° SSW 17:14:10 10° SE daylight
17 Feb - 18:55:40 10° SW 18:57:37 13° SSW 18:59:42 10° S visible
18 Feb - 11:22:52 10° SSW 11:25:31 15° SSE 11:27:57 10° SE daylight
18 Feb - 13:08:43 10° SW 13:12:37 34° SSE 13:16:04 10° ESE daylight
18 Feb - 14:55:58 10° WSW 14:59:39 49° S 15:03:08 10° ESE daylight
18 Feb - 16:43:22 10° WSW 16:46:38 32° SSW 16:49:58 10° SE daylight
18 Feb - 18:31:59 10° SW 18:33:31 12° SSW 18:35:07 10° S visible
19 Feb - 10:58:10 10° SSW 11:01:21 16° SSE 11:04:13 10° ESE daylight
19 Feb - 12:44:20 10° SW 12:48:32 36° SSE 12:52:08 10° E daylight
19 Feb - 14:31:45 10° WSW 14:35:37 50° S 14:39:07 10° ESE daylight
19 Feb - 16:19:18 10° WSW 16:22:34 31° SSW 16:25:50 10° SE daylight
19 Feb - 18:08:20 10° SW 18:09:24 11° SSW 18:10:29 10° S daylight
20 Feb - 10:33:28 10° SSW 10:37:09 18° SSE 10:40:25 10° ESE daylight
20 Feb - 12:19:53 10° WSW 12:24:23 38° S 12:28:12 10° E daylight
20 Feb - 14:07:28 10° WSW 14:11:33 51° S 14:15:08 10° ESE daylight
20 Feb - 15:55:11 10° WSW 15:58:30 31° SSW 16:01:43 10° SE daylight
20 Feb - 17:44:55 10° SSW 17:45:17 10° SSW 17:45:40 10° SSW daylight
21 Feb - 10:08:44 10° SSW 10:12:55 20° SSE 10:16:35 10° ESE daylight
21 Feb - 11:55:22 10° WSW 12:00:14 41° S 12:04:17 10° E daylight
21 Feb - 13:43:07 10° WSW 13:47:27 53° S 13:51:10 10° ESE daylight
21 Feb - 15:30:59 10° WSW 15:34:26 31° SSW 15:37:39 10° SE daylight
22 Feb - 09:43:59 10° SSW 09:48:39 22° SSE 09:52:41 10° ESE daylight
22 Feb - 11:30:49 10° WSW 11:36:02 43° S 11:40:20 10° E daylight
22 Feb - 13:18:42 10° W 13:23:19 54° S 13:27:12 10° ESE daylight
22 Feb - 15:06:43 10° W 15:10:20 31° SSW 15:13:37 10° SE daylight
23 Feb - 09:19:13 10° SSW 09:24:19 24° SSE 09:28:44 10° ESE daylight
23 Feb - 11:06:13 10° WSW 11:11:48 46° S 11:16:21 10° E daylight
23 Feb - 12:54:14 10° W 12:59:09 56° S 13:03:13 10° ESE daylight
23 Feb - 14:42:23 10° W 14:46:13 32° SSW 14:49:36 10° SE daylight
24 Feb - 08:54:27 10° SSW 08:59:58 26° SSE 09:04:44 10° ESE daylight
24 Feb - 10:41:34 10° WSW 10:47:31 48° S 10:52:21 10° E daylight
24 Feb - 12:29:41 10° W 12:34:57 58° S 12:39:14 10° ESE daylight
24 Feb - 14:17:59 10° W 14:22:04 33° SSW 14:25:36 10° SE daylight
25 Feb - 08:29:41 10° SW 08:35:32 28° SSE 08:40:39 10° ESE daylight
25 Feb - 10:16:53 10° WSW 10:23:11 51° S 10:28:19 10° E daylight
25 Feb - 12:05:06 10° W 12:10:43 59° S 12:15:15 10° ESE daylight
25 Feb - 13:53:31 10° W 13:57:53 34° SSW 14:01:36 10° SE daylight
